Location: Unspecified
(0.0000°N, 0.0000°E)
Time: 14:02:24
(UTC+00:00)

deb Delta 126 - Pass Details

Date: 16 February 2026
Orbit: 1501 x 1634 km, 102.6° (Epoch: 4 March)

Event Time Altitude Azimuth Distance (km) Brightness Sun altitude
Rises 04:45:08 0° 4° (N) 4,803 ? -21.7°
Reaches altitude 10° 04:48:10 10° 359° (N) 3,805 ? -21.0°
Maximum altitude 04:56:38 48° 288° (WNW) 1,960 ? -18.9°
Drops below altitude 10° 05:04:58 10° 216° (SW) 3,722 ? -16.9°
Sets 05:07:55 0° 210° (SSW) 4,691 ? -16.1°
